EW7356 Weather Reports


Display with metric or nautical units.
time (UTC)temp
F
wind
direction
speed
MPH
gust
MPH
rain 1hr
in
rain 24hr
in
rain mn
in
humidity
%
barometer
mb
20260901113050 59 0 0.0 1.0 0.09 0.09 0.09 92 1018.4
20260901112531 59 0 0.0 1.0 0.08 0.08 0.08 92 1018.3
20260901112031 59 0 0.0 1.0 0.06 0.06 0.06 92 1018.3
20260901111548 59 0 0.0 1.0 0.05 0.05 0.05 92 1018.1
20260901111028 59 0 0.0 1.0 0.03 0.03 0.03 91 1018.1
20260901110530 59 0 0.0 0.0 0.02 0.02 0.02 90 1017.9
20260901110048 59 0 0.0 0.0 0.00 0.00 0.00 90 1017.8
20260901105530 59 0 0.0 1.0 0.00 0.00 0.00 89 1017.8
20260901105033 59 0 0.0 1.0 0.00 0.00 0.00 89 1017.6
20260901104550 59 0 0.0 1.0 0.00 0.00 0.00 88 1017.7
20260901104031 59 0 0.0 1.0 0.00 0.00 0.00 88 1017.6
20260901103530 60 0 0.0 1.0 0.00 0.00 0.00 88 1017.5
20260901103051 60 0 0.0 2.0 0.00 0.00 0.00 88 1017.4
20260901102530 60 0 0.0 2.0 0.00 0.00 0.00 88 1017.3
20260901102031 60 19 0.0 1.0 0.00 0.00 0.00 88 1017.4
20260901101549 60 0 0.0 1.0 0.00 0.00 0.00 88 1017.3
20260901101030 60 0 0.0 1.0 0.00 0.00 0.00 89 1017.2
20260901100533 60 0 0.0 1.0 0.00 0.00 0.00 88 1017.3
20260901100051 60 0 0.0 1.0 0.00 0.00 0.00 88 1017.3
20260901095530 60 0 0.0 3.0 0.00 0.00 0.00 88 1017.3
20260901095030 60 0 1.0 3.0 0.00 0.00 0.00 89 1017.4
20260901094549 60 35 0.0 2.0 0.00 0.00 0.00 89 1017.3
20260901094029 60 0 0.0 0.0 0.00 0.00 0.00 89 1017.0
20260901093531 60 0 0.0 0.0 0.00 0.00 0.00 90 1016.9
20260901093057 60 0 0.0 0.0 0.00 0.00 0.00 89 1017.1
20260901092530 60 0 0.0 1.0 0.00 0.00 0.00 90 1017.1
20260901092030 60 0 0.0 2.0 0.00 0.00 0.00 90 1017.0
20260901091556 60 0 0.0 2.0 0.00 0.00 0.00 89 1017.2
20260901091030 60 43 0.0 2.0 0.00 0.00 0.00 89 1017.1
20260901090529 60 0 0.0 1.0 0.00 0.00 0.00 90 1017.2
20260901090053 60 0 0.0 1.0 0.00 0.00 0.00 90 1017.2
20260901085530 60 0 0.0 1.0 0.00 0.00 0.00 90 1017.2
20260901085033 60 0 0.0 1.0 0.00 0.00 0.00 90 1017.1
20260901084551 60 0 0.0 1.0 0.00 0.00 0.00 91 1017.1
20260901084030 60 0 0.0 1.0 0.00 0.00 0.00 91 1017.2
20260901083531 60 43 0.0 1.0 0.00 0.00 0.00 91 1017.3
20260901083048 60 0 0.0 1.0 0.00 0.00 0.00 92 1017.4
20260901082530 60 0 0.0 1.0 0.00 0.00 0.00 92 1017.3
20260901082034 59 0 0.0 1.0 0.00 0.00 0.00 92 1017.5
20260901081544 59 0 0.0 0.0 0.00 0.00 0.00 92 1017.5
20260901081030 59 0 0.0 0.0 0.00 0.00 0.00 92 1017.3
20260901080530 59 0 0.0 0.0 0.00 0.00 0.00 92 1017.2
20260901080057 60 0 0.0 0.0 0.00 0.00 0.00 92 1017.4
20260901075530 60 0 0.0 3.0 0.00 0.00 0.00 92 1017.5
20260901075031 60 0 0.0 3.0 0.00 0.00 0.00 93 1017.4
20260901074539 60 348 0.0 2.0 0.00 0.00 0.00 94 1017.3
20260901074030 60 0 0.0 1.0 0.00 0.00 0.00 93 1017.3
20260901073530 59 0 0.0 0.0 0.00 0.00 0.00 93 1017.4
20260901073049 59 0 0.0 0.0 0.00 0.00 0.00 93 1017.5
20260901072531 59 0 0.0 1.0 0.00 0.00 0.00 93 1017.4
20260901072032 59 0 0.0 1.0 0.00 0.00 0.00 93 1017.4
20260901071544 59 319 0.0 1.0 0.00 0.00 0.00 93 1017.5
20260901071029 59 0 0.0 1.0 0.00 0.00 0.00 93 1017.5
20260901070529 59 0 0.0 2.0 0.00 0.00 0.00 93 1017.5
20260901070054 59 0 0.0 2.0 0.00 0.00 0.00 93 1017.6
20260901065530 59 319 1.0 2.0 0.00 0.00 0.00 94 1017.7
20260901065029 59 0 0.0 1.0 0.00 0.00 0.00 93 1017.8
20260901064606 59 0 0.0 1.0 0.00 0.00 0.00 93 1017.7
20260901064029 60 0 0.0 1.0 0.00 0.00 0.00 93 1017.6
20260901063530 59 0 0.0 1.0 0.00 0.00 0.00 94 1017.7
20260901063109 59 0 0.0 1.0 0.00 0.00 0.00 94 1017.7
20260901062532 59 319 0.0 2.0 0.00 0.00 0.00 94 1017.8
20260901062237 59 0 0.0 2.0 0.00 0.00 0.00 94 1017.8
20260901061543 59 319 0.0 2.0 0.00 0.00 0.00 94 1017.8
20260901061030 59 0 0.0 0.0 0.00 0.00 0.00 93 1017.7
20260901060533 59 0 0.0 0.0 0.00 0.00 0.00 93 1017.9
20260901060047 59 0 0.0 0.0 0.00 0.00 0.00 93 1018.0
20260901055724 59 0 0.0 0.0 0.00 0.00 0.00 92 1017.9
20260901054030 59 0 0.0 0.0 0.00 0.00 0.00 92 1017.8
20260901053530 59 0 0.0 0.0 0.00 0.00 0.00 91 1017.9
20260901053039 59 0 0.0 2.0 0.00 0.00 0.00 92 1018.1
20260901052527 59 0 0.0 2.0 0.00 0.00 0.00 92 1018.1
20260901052030 59 0 0.0 2.0 0.00 0.00 0.00 92 1018.2
20260901051554 59 0 0.0 1.0 0.00 0.00 0.00 92 1018.2
20260901051030 59 0 0.0 0.0 0.00 0.00 0.00 92 1018.1
20260901050530 59 0 0.0 1.0 0.00 0.00 0.00 92 1018.1
20260901050048 59 0 0.0 1.0 0.00 0.00 0.00 91 1018.1
20260901045530 59 0 0.0 1.0 0.00 0.00 0.00 91 1018.0
20260901045030 59 0 0.0 0.0 0.00 0.00 0.00 90 1018.0
20260901044544 60 0 0.0 1.0 0.00 0.00 0.00 90 1018.0
20260901044034 60 0 0.0 1.0 0.00 0.00 0.00 90 1018.2
20260901043530 60 0 0.0 0.0 0.00 0.00 0.00 90 1018.1
20260901043053 60 0 0.0 0.0 0.00 0.00 0.00 90 1017.8
20260901042527 60 0 0.0 1.0 0.00 0.00 0.00 89 1017.7
20260901042029 60 0 0.0 1.0 0.00 0.00 0.00 90 1017.8
20260901041538 60 0 0.0 1.0 0.00 0.00 0.00 90 1017.8
20260901041027 60 0 0.0 1.0 0.00 0.00 0.00 90 1017.8
20260901040530 60 0 0.0 1.0 0.00 0.00 0.00 89 1018.1
20260901040050 60 0 0.0 0.0 0.00 0.00 0.00 90 1017.8
20260901035530 59 0 0.0 0.0 0.00 0.00 0.00 90 1017.8
20260901035027 59 0 0.0 0.0 0.00 0.00 0.00 89 1018.0
20260901034549 59 0 0.0 0.0 0.00 0.00 0.00 89 1017.9
20260901034029 59 0 0.0 0.0 0.00 0.00 0.00 89 1018.0
20260901033529 59 0 0.0 0.0 0.00 0.00 0.00 89 1017.9
20260901033043 59 0 0.0 0.0 0.00 0.00 0.00 88 1018.0
20260901032528 59 0 0.0 0.0 0.00 0.00 0.00 88 1018.0
20260901032028 59 0 0.0 0.0 0.00 0.00 0.00 88 1018.0
20260901031547 59 0 0.0 2.0 0.00 0.00 0.00 89 1018.0
20260901031031 59 0 0.0 2.0 0.00 0.00 0.00 88 1017.9
20260901030527 59 319 1.0 2.0 0.00 0.00 0.00 88 1017.8
20260901030047 59 0 0.0 1.0 0.00 0.00 0.00 87 1017.9
20260901025529 59 0 0.0 1.0 0.00 0.00 0.00 87 1018.0
20260901025032 59 0 0.0 1.0 0.00 0.00 0.00 87 1018.0
20260901024540 60 0 0.0 0.0 0.00 0.00 0.00 87 1018.1
20260901024031 60 0 0.0 0.0 0.00 0.00 0.00 86 1018.1
20260901023530 60 0 0.0 0.0 0.00 0.00 0.00 85 1018.1
20260901023041 60 0 0.0 0.0 0.00 0.00 0.00 84 1018.1
20260901022530 61 0 0.0 1.0 0.00 0.00 0.00 83 1018.1
20260901022030 61 0 0.0 1.0 0.00 0.00 0.00 83 1018.1
20260901021549 61 0 0.0 1.0 0.00 0.00 0.00 82 1018.1
20260901021031 62 0 0.0 1.0 0.00 0.00 0.00 81 1018.0
20260901020528 62 0 0.0 1.0 0.00 0.00 0.00 80 1018.1
20260901020043 63 0 0.0 1.0 0.00 0.00 0.00 79 1018.0
20260901015532 63 0 0.0 1.0 0.00 0.00 0.00 79 1018.0
20260901015031 63 0 0.0 1.0 0.00 0.00 0.00 80 1017.9
20260901014549 63 319 0.0 1.0 0.00 0.00 0.00 79 1018.1
20260901014030 64 0 0.0 1.0 0.00 0.00 0.00 78 1018.1
20260901013530 64 0 0.0 2.0 0.00 0.00 0.00 78 1018.2
20260901013058 64 0 0.0 2.0 0.00 0.00 0.00 79 1018.1
20260901012529 64 0 0.0 2.0 0.00 0.00 0.00 79 1018.0
20260901012033 64 0 0.0 1.0 0.00 0.00 0.00 78 1018.0
20260901011551 64 0 0.0 1.0 0.00 0.00 0.00 78 1018.0
20260901011030 64 0 0.0 1.0 0.00 0.00 0.00 78 1018.0
20260901010530 64 0 0.0 2.0 0.00 0.00 0.00 78 1018.0
20260901010054 64 0 0.0 2.0 0.00 0.00 0.00 77 1018.0
20260901005527 64 319 0.0 2.0 0.00 0.00 0.00 77 1018.1
20260901005030 64 0 0.0 1.0 0.00 0.00 0.00 77 1018.0
20260901004555 64 0 0.0 1.0 0.00 0.00 0.00 75 1018.2
20260901004029 64 0 0.0 1.0 0.00 0.00 0.00 74 1018.3
20260901003529 64 0 0.0 1.0 0.00 0.00 0.00 74 1018.2
20260901003054 64 0 0.0 1.0 0.00 0.00 0.00 73 1018.1
20260901002529 64 0 0.0 2.0 0.00 0.00 0.00 73 1018.1
20260901002031 64 0 0.0 2.0 0.00 0.00 0.00 73 1017.9
20260901001549 64 0 0.0 0.0 0.00 0.00 0.00 72 1018.0
20260901001028 65 0 0.0 0.0 0.00 0.00 0.00 71 1018.0
20260901000531 65 0 0.0 1.0 0.00 0.00 0.00 70 1017.9
20260901000048 66 0 0.0 1.0 0.00 0.00 0.00 68 1017.8
20260831235529 66 329 0.0 1.0 0.00 0.00 0.00 68 1018.0
20260831235034 67 0 0.0 1.0 0.00 0.00 0.00 67 1017.9
20260831234540 67 0 0.0 1.0 0.00 0.00 0.00 66 1018.0
20260831234028 68 0 0.0 1.0 0.00 0.00 0.00 65 1017.9
20260831233528 68 0 0.0 0.0 0.00 0.00 0.00 64 1017.9
20260831233048 69 0 0.0 1.0 0.00 0.00 0.00 63 1017.9
20260831232530 70 0 0.0 1.0 0.00 0.00 0.00 62 1017.9
20260831232029 70 0 0.0 1.0 0.00 0.00 0.00 60 1018.1
20260831231548 71 0 0.0 2.0 0.00 0.00 0.00 58 1018.0
20260831231030 71 0 0.0 3.0 0.00 0.00 0.00 56 1018.1
20260831230530 72 329 0.0 3.0 0.00 0.00 0.00 56 1018.1
20260831230051 72 329 0.0 3.0 0.00 0.00 0.00 56 1018.3
20260831225529 72 334 1.0 3.0 0.00 0.00 0.00 55 1018.4
20260831225032 73 293 1.0 4.0 0.00 0.00 0.00 55 1018.5
20260831224550 73 5 1.0 4.0 0.00 0.00 0.00 54 1018.3
20260831224033 73 294 1.0 3.0 0.00 0.00 0.00 54 1018.3
20260831223530 74 0 0.0 3.0 0.00 0.00 0.00 55 1018.1
20260831223048 74 0 0.0 5.0 0.00 0.00 0.00 55 1018.2
20260831222530 74 268 1.0 5.0 0.00 0.00 0.00 54 1018.2
20260831222031 74 272 1.0 8.0 0.00 0.00 0.00 53 1018.2
20260831221545 74 290 2.0 8.0 0.00 0.00 0.00 52 1018.2
20260831221030 74 267 2.0 6.0 0.00 0.00 0.00 52 1018.2
20260831220530 75 252 2.0 8.0 0.00 0.00 0.00 53 1018.2
20260831220043 75 238 3.0 8.0 0.00 0.00 0.00 53 1018.2
20260831215532 75 250 3.0 8.0 0.00 0.00 0.00 52 1018.3
20260831215030 75 242 2.0 7.0 0.00 0.00 0.00 54 1018.2
20260831214543 75 317 3.0 7.0 0.00 0.00 0.00 55 1018.2
20260831214029 75 276 2.0 5.0 0.00 0.00 0.00 55 1018.2
20260831213529 75 205 1.0 4.0 0.00 0.00 0.00 57 1018.2
20260831213046 74 228 1.0 3.0 0.00 0.00 0.00 59 1018.2
20260831212527 73 270 1.0 3.0 0.00 0.00 0.00 56 1018.1
20260831212028 74 350 0.0 4.0 0.00 0.00 0.00 57 1018.2
20260831211548 74 0 0.0 7.0 0.00 0.00 0.00 55 1018.1
20260831211031 75 347 1.0 8.0 0.00 0.00 0.00 54 1018.1
20260831210532 76 302 3.0 8.0 0.00 0.00 0.00 53 1018.1
20260831210043 76 5 2.0 6.0 0.00 0.00 0.00 53 1018.2
20260831205529 76 308 2.0 6.0 0.00 0.00 0.00 53 1018.2
20260831205030 75 275 1.0 8.0 0.00 0.00 0.00 56 1018.3
20260831204542 74 244 3.0 8.0 0.00 0.00 0.00 55 1018.3
20260831204030 75 200 3.0 9.0 0.00 0.00 0.00 52 1018.4
20260831203527 75 325 3.0 9.0 0.00 0.00 0.00 54 1018.4
20260831203054 75 229 3.0 8.0 0.00 0.00 0.00 54 1018.4
20260831202528 75 288 2.0 11.0 0.00 0.00 0.00 55 1018.3
20260831202028 75 254 3.0 11.0 0.00 0.00 0.00 52 1018.5
20260831201554 75 192 3.0 11.0 0.00 0.00 0.00 56 1018.5
20260831201029 75 234 4.0 11.0 0.00 0.00 0.00 52 1018.4
20260831200530 75 173 5.0 10.0 0.00 0.00 0.00 52 1018.4
20260831200045 74 259 3.0 9.0 0.00 0.00 0.00 52 1018.4
20260831195529 74 218 3.0 10.0 0.00 0.00 0.00 53 1018.5
20260831195029 73 241 3.0 10.0 0.00 0.00 0.00 54 1018.6
20260831194634 73 315 1.0 7.0 0.00 0.00 0.00 55 1018.7
20260831194031 73 278 2.0 8.0 0.00 0.00 0.00 55 1018.6
20260831193528 73 250 3.0 8.0 0.00 0.00 0.00 53 1018.6
20260831193046 73 280 1.0 8.0 0.00 0.00 0.00 52 1018.7
20260831192531 74 295 4.0 9.0 0.00 0.00 0.00 50 1018.7
20260831192031 75 253 2.0 9.0 0.00 0.00 0.00 47 1018.8
20260831191543 75 250 2.0 9.0 0.00 0.00 0.00 45 1018.8
20260831191033 75 279 2.0 8.0 0.00 0.00 0.00 45 1018.8
20260831190530 75 202 2.0 8.0 0.00 0.00 0.00 44 1018.8
20260831190047 75 202 2.0 8.0 0.00 0.00 0.00 45 1018.7
20260831185529 75 225 2.0 8.0 0.00 0.00 0.00 40 1018.8
20260831185029 75 269 2.0 9.0 0.00 0.00 0.00 40 1018.8
20260831184558 75 352 3.0 9.0 0.00 0.00 0.00 43 1019.0
20260831184031 74 179 2.0 8.0 0.00 0.00 0.00 44 1019.1
20260831183529 74 238 3.0 8.0 0.00 0.00 0.00 40 1019.1
20260831183048 74 271 2.0 7.0 0.00 0.00 0.00 40 1019.2
20260831182533 74 261 3.0 8.0 0.00 0.00 0.00 40 1019.2
20260831182028 75 232 3.0 8.0 0.00 0.00 0.00 44 1019.3
20260831181550 75 352 2.0 10.0 0.00 0.00 0.00 41 1019.3
20260831181029 74 322 3.0 10.0 0.00 0.00 0.00 41 1019.4
20260831180529 74 5 4.0 9.0 0.00 0.00 0.00 41 1019.5
20260831180044 74 246 3.0 9.0 0.00 0.00 0.00 45 1019.6
20260831175532 73 281 3.0 9.0 0.00 0.00 0.00 45 1019.4
20260831175029 74 271 3.0 9.0 0.00 0.00 0.00 50 1019.4
20260831174551 74 208 4.0 8.0 0.00 0.00 0.00 52 1019.3
20260831174033 73 285 3.0 8.0 0.00 0.00 0.00 52 1019.5
20260831173530 73 219 2.0 8.0 0.00 0.00 0.00 52 1019.7
20260831173041 73 226 4.0 8.0 0.00 0.00 0.00 50 1019.8
20260831172529 73 230 2.0 9.0 0.00 0.00 0.00 53 1019.8
20260831172032 73 241 3.0 9.0 0.00 0.00 0.00 55 1019.8
20260831171546 72 236 2.0 9.0 0.00 0.00 0.00 55 1019.9
20260831171028 72 266 5.0 9.0 0.00 0.00 0.00 52 1019.8
20260831170529 73 219 2.0 8.0 0.00 0.00 0.00 51 1019.8
20260831170052 72 0 2.0 8.0 0.00 0.00 0.00 49 1019.9
20260831165528 72 164 1.0 7.0 0.00 0.00 0.00 49 1020.1
20260831165029 72 0 2.0 10.0 0.00 0.00 0.00 46 1020.1
20260831164548 72 0 3.0 10.0 0.00 0.00 0.00 45 1020.1
20260831164029 72 239 3.0 10.0 0.00 0.00 0.00 44 1020.2
20260831163530 71 231 3.0 9.0 0.00 0.00 0.00 49 1020.2
20260831163044 70 204 4.0 14.0 0.00 0.00 0.00 48 1020.2
20260831162529 71 243 6.0 14.0 0.00 0.00 0.00 49 1020.2
20260831162031 71 277 4.0 9.0 0.00 0.00 0.00 51 1020.4
20260831161549 71 246 4.0 11.0 0.00 0.00 0.00 51 1020.3
20260831161029 71 216 5.0 11.0 0.00 0.00 0.00 50 1020.2
20260831160528 71 219 5.0 9.0 0.00 0.00 0.00 50 1020.2
20260831160042 72 250 2.0 9.0 0.00 0.00 0.00 49 1020.2
20260831155528 71 223 3.0 9.0 0.00 0.00 0.00 52 1020.3
20260831155029 71 331 2.0 8.0 0.00 0.00 0.00 54 1020.4
20260831154608 71 224 1.0 7.0 0.00 0.00 0.00 54 1020.2
20260831154026 70 0 1.0 7.0 0.00 0.00 0.00 49 1020.3
20260831153533 70 336 2.0 9.0 0.00 0.00 0.00 56 1020.3
20260831153048 70 0 1.0 9.0 0.00 0.00 0.00 55 1020.2
20260831152533 70 246 2.0 8.0 0.00 0.00 0.00 55 1020.2
20260831152032 70 221 2.0 5.0 0.00 0.00 0.00 54 1020.2
20260831151543 70 279 1.0 6.0 0.00 0.00 0.00 54 1020.3
20260831151030 70 313 1.0 9.0 0.00 0.00 0.00 56 1020.4
20260831150530 70 259 2.0 9.0 0.00 0.00 0.00 53 1020.5
20260831150042 69 343 3.0 9.0 0.00 0.00 0.00 54 1020.4
20260831145528 69 318 1.0 5.0 0.00 0.00 0.00 55 1020.4
20260831145028 69 62 1.0 9.0 0.00 0.00 0.00 56 1020.5
20260831144621 68 338 2.0 9.0 0.00 0.00 0.00 58 1020.5
20260831144028 68 80 2.0 7.0 0.00 0.00 0.00 56 1020.5
20260831143531 68 33 1.0 8.0 0.00 0.00 0.00 56 1020.6
20260831143043 68 0 1.0 8.0 0.00 0.00 0.00 58 1020.6
20260831142532 68 324 2.0 7.0 0.00 0.00 0.00 55 1020.6
20260831142030 68 248 2.0 6.0 0.00 0.00 0.00 60 1020.5
20260831141544 68 5 1.0 7.0 0.00 0.00 0.00 59 1020.5
20260831141029 67 268 1.0 9.0 0.00 0.00 0.00 58 1020.5
20260831140529 67 255 2.0 9.0 0.00 0.00 0.00 62 1020.5
20260831140040 66 280 2.0 5.0 0.00 0.00 0.00 62 1020.4
20260831135530 66 270 2.0 9.0 0.00 0.00 0.00 63 1020.4
20260831135032 66 289 3.0 9.0 0.00 0.00 0.00 61 1020.4
20260831134545 65 340 3.0 9.0 0.00 0.00 0.00 64 1020.2
20260831134029 65 352 2.0 7.0 0.00 0.00 0.00 65 1020.3
20260831133529 64 338 1.0 5.0 0.00 0.00 0.00 67 1020.3
20260831133052 64 54 2.0 5.0 0.00 0.00 0.00 69 1020.3
20260831132529 64 227 1.0 7.0 0.00 0.00 0.00 71 1020.3
20260831132032 63 259 1.0 10.0 0.00 0.00 0.00 71 1020.3
20260831131550 63 5 3.0 10.0 0.00 0.00 0.00 71 1020.4
20260831131031 63 336 1.0 8.0 0.00 0.00 0.00 74 1020.4
20260831130534 62 328 2.0 8.0 0.00 0.00 0.00 75 1020.4
20260831130045 62 36 1.0 7.0 0.00 0.00 0.00 75 1020.5
20260831125532 62 254 2.0 7.0 0.00 0.00 0.00 77 1020.5
20260831125031 61 216 2.0 4.0 0.00 0.00 0.00 78 1020.5
20260831124545 60 0 0.0 4.0 0.00 0.00 0.00 78 1020.6
20260831124030 59 246 2.0 5.0 0.00 0.00 0.00 81 1020.5
20260831123529 59 337 2.0 5.0 0.00 0.00 0.00 82 1020.5
20260831123054 58 59 1.0 4.0 0.00 0.00 0.00 85 1020.5
20260831122530 57 0 0.0 0.0 0.00 0.00 0.00 88 1020.4
20260831122029 57 0 0.0 0.0 0.00 0.00 0.00 91 1020.4
20260831121549 57 0 0.0 0.0 0.00 0.00 0.00 92 1020.4
20260831121033 56 0 0.0 2.0 0.00 0.00 0.00 93 1020.4
20260831120531 56 0 0.0 2.0 0.00 0.00 0.00 94 1020.5
20260831120044 56 0 0.0 2.0 0.00 0.00 0.00 94 1020.6
20260831115531 55 0 0.0 3.0 0.00 0.00 0.00 95 1020.5
20260831115033 55 0 0.0 3.0 0.00 0.00 0.00 95 1020.4
20260831114557 55 262 1.0 2.0 0.00 0.00 0.00 95 1020.4
20260831114032 54 292 1.0 2.0 0.00 0.00 0.00 95 1020.3
20260831113530 54 343 0.0 1.0 0.00 0.00 0.00 94 1020.3